Location: Cahas Mountain Overlook
(37.0833°N, 80.1000°W)
Time: 18:02:40
(UTC-05:00)

ISS - Pass Details

Date: 06 December 2021
Orbit: 413 x 422 km, 51.6° (Epoch: 28 January)

Event Time Altitude Azimuth Distance (km) Brightness Sun altitude
Rises 18:03:47 0° 316° (NW) 2,380 0.4 -11.9°
Reaches altitude 10° 18:05:59 10° 324° (NW) 1,510 -0.7 -12.3°
Maximum altitude 18:09:12 40° 35° (NE) 639 -3.2 -12.9°
Enters shadow 18:10:53 22° 92° (E) 959 -2.5 -13.2°
